FW0403 Weather Reports


Display with metric or nautical units.
time (UTC)temp
F
wind
direction
speed
MPH
gust
MPH
rain 1hr
in
rain 24hr
in
rain mn
in
humidity
%
barometer
mb
20260831215250 91 119 2.0 6.0 0.00 0.03 0.03 69 1013.3
20260831214747 90 95 3.0 6.0 0.00 0.03 0.03 69 1013.4
20260831214239 90 100 4.0 6.0 0.00 0.03 0.03 69 1013.6
20260831213124 91 113 3.0 6.0 0.00 0.03 0.03 68 1013.7
20260831212609 91 104 3.0 6.0 0.00 0.03 0.03 67 1013.7
20260831212059 91 108 3.0 6.0 0.00 0.03 0.03 68 1013.8
20260831210939 90 96 4.0 6.0 0.00 0.03 0.03 67 1014.1
20260831210438 91 102 4.0 6.0 0.00 0.03 0.03 66 1014.0
20260831205944 91 78 4.0 9.0 0.00 0.03 0.03 65 1014.1
20260831204746 91 84 4.0 9.0 0.00 0.03 0.03 66 1014.1
20260831204247 90 87 4.0 9.0 0.00 0.03 0.03 66 1014.2
20260831203737 90 72 4.0 10.0 0.00 0.03 0.03 67 1014.2
20260831203214 90 80 3.0 10.0 0.00 0.03 0.03 67 1014.3
20260831201426 89 48 7.0 12.0 0.00 0.03 0.03 68 1014.4
20260831200931 89 62 8.0 12.0 0.00 0.03 0.03 67 1014.5
20260831195812 91 58 6.0 11.0 0.00 0.03 0.03 68 1014.6
20260831195315 91 59 5.0 11.0 0.00 0.03 0.03 68 1014.6
20260831194816 90 57 5.0 13.0 0.00 0.03 0.03 67 1014.6
20260831193657 90 67 8.0 13.0 0.00 0.03 0.03 69 1014.7
20260831193154 90 84 8.0 13.0 0.00 0.03 0.03 69 1014.7
20260831192653 90 103 9.0 12.0 0.00 0.03 0.03 70 1014.7
20260831192134 90 86 9.0 12.0 0.00 0.03 0.03 69 1014.8
20260831191640 91 71 8.0 12.0 0.00 0.03 0.03 69 1014.9
20260831191139 91 109 7.0 11.0 0.00 0.03 0.03 68 1014.9
20260831190618 91 123 7.0 11.0 0.00 0.03 0.03 68 1015.0
20260831185558 92 70 5.0 10.0 0.00 0.03 0.03 66 1015.0
20260831185039 92 70 4.0 8.0 0.00 0.03 0.03 66 1015.1
20260831184541 92 70 4.0 7.0 0.00 0.03 0.03 66 1015.1
20260831184041 92 70 4.0 8.0 0.00 0.03 0.03 66 1015.1
20260831183539 92 70 3.0 8.0 0.00 0.03 0.03 68 1015.2
20260831183028 91 70 4.0 9.0 0.00 0.03 0.03 67 1015.3
20260831182511 90 70 3.0 9.0 0.00 0.03 0.03 67 1015.3
20260831182011 90 70 3.0 10.0 0.00 0.03 0.03 66 1015.3
20260831181509 90 70 4.0 10.0 0.00 0.03 0.03 67 1015.5
20260831181010 90 69 6.0 10.0 0.00 0.03 0.03 67 1015.6
20260831180448 90 76 7.0 10.0 0.00 0.03 0.03 69 1015.7
20260831175935 91 98 8.0 12.0 0.00 0.03 0.03 69 1015.7
20260831175427 91 75 8.0 12.0 0.00 0.03 0.03 68 1015.7
20260831174912 91 91 8.0 12.0 0.00 0.03 0.03 69 1015.7
20260831174403 91 81 9.0 12.0 0.00 0.03 0.03 69 1015.5
20260831173851 90 82 9.0 12.0 0.00 0.03 0.03 70 1015.7
20260831173358 90 99 8.0 12.0 0.00 0.03 0.03 70 1015.8
20260831172842 90 89 8.0 12.0 0.00 0.03 0.03 70 1015.7
20260831172322 90 78 8.0 11.0 0.00 0.03 0.03 70 1015.8
20260831171818 90 83 7.0 11.0 0.00 0.03 0.03 70 1015.9
20260831171318 90 62 5.0 10.0 0.00 0.03 0.03 71 1015.8
20260831170818 89 53 4.0 10.0 0.00 0.03 0.03 72 1015.8
20260831170324 88 25 5.0 10.0 0.00 0.03 0.03 72 1015.9
20260831165831 87 19 4.0 10.0 0.00 0.03 0.03 73 1015.9
20260831165328 87 53 3.0 8.0 0.00 0.03 0.03 76 1016.0
20260831164831 87 337 2.0 8.0 0.04 0.03 0.03 77 1015.9
20260831164325 87 357 1.0 6.0 0.05 0.03 0.03 78 1016.0
20260831163828 86 299 2.0 8.0 0.09 0.03 0.03 77 1015.8
20260831163311 86 357 4.0 8.0 0.28 0.03 0.03 76 1015.8
20260831162816 86 38 5.0 11.0 0.00 0.01 0.01 74 1015.9
20260831162313 87 16 5.0 11.0 0.00 0.00 0.00 73 1015.9
20260831161815 88 42 7.0 12.0 0.00 0.00 0.00 72 1015.8
20260831161318 89 30 8.0 12.0 0.00 0.00 0.00 72 1015.9
20260831160816 89 17 7.0 12.0 0.00 0.00 0.00 70 1015.7
20260831155649 89 340 7.0 12.0 0.00 0.00 0.00 66 1015.7
20260831154523 89 340 4.0 9.0 0.00 0.00 0.00 70 1015.7
20260831154028 90 308 4.0 9.0 0.00 0.00 0.00 68 1015.6
20260831153528 90 7 3.0 9.0 0.00 0.00 0.00 68 1015.6
20260831153021 90 318 3.0 9.0 0.00 0.00 0.00 69 1015.5
20260831152505 90 336 3.0 9.0 0.00 0.00 0.00 69 1015.5
20260831152011 89 273 3.0 9.0 0.00 0.00 0.00 69 1015.5
20260831151457 89 357 4.0 8.0 0.00 0.00 0.00 70 1015.6
20260831150951 89 17 3.0 8.0 0.00 0.00 0.00 71 1015.7
20260831144540 88 7 3.0 8.0 0.00 0.00 0.00 73 1015.6
20260831143415 88 17 2.0 8.0 0.00 0.00 0.00 72 1015.6
20260831141637 88 352 0.0 3.0 0.00 0.00 0.00 75 1015.5
20260831141126 87 322 1.0 3.0 0.00 0.00 0.00 75 1015.4
20260831140630 87 311 1.0 3.0 0.00 0.00 0.00 76 1015.4
20260831140118 86 286 1.0 3.0 0.00 0.00 0.00 77 1015.4
20260831135607 86 357 1.0 4.0 0.00 0.00 0.00 78 1015.5
20260831135110 86 350 1.0 4.0 0.00 0.00 0.00 78 1015.3
20260831133306 85 357 0.0 3.0 0.00 0.00 0.00 79 1015.1
20260831132744 85 357 0.0 2.0 0.00 0.00 0.00 79 1015.0
20260831132228 85 357 0.0 0.0 0.00 0.00 0.00 79 1015.0
20260831131717 85 357 0.0 2.0 0.00 0.00 0.00 79 1015.0
20260831131215 85 357 0.0 2.0 0.00 0.00 0.00 79 1015.0
20260831130708 85 357 0.0 2.0 0.00 0.00 0.00 79 1014.9
20260831130148 85 357 0.0 2.0 0.00 0.00 0.00 79 1014.7
20260831125640 85 357 0.0 2.0 0.00 0.00 0.00 79 1014.7
20260831125147 85 357 0.0 2.0 0.00 0.00 0.00 79 1014.6
20260831124914 85 357 0.0 3.0 0.00 0.00 0.00 79 1014.5
20260831124403 85 7 0.0 3.0 0.00 0.00 0.00 79 1014.6
20260831123841 85 7 0.0 3.0 0.00 0.00 0.00 79 1014.4
20260831123338 85 347 0.0 0.0 0.00 0.00 0.00 78 1014.3
20260831122819 85 347 0.0 1.0 0.00 0.00 0.00 78 1014.3
20260831122306 85 347 0.0 1.0 0.00 0.00 0.00 78 1014.2
20260831121755 85 347 0.0 0.0 0.00 0.00 0.00 78 1014.2
20260831121301 85 347 0.0 1.0 0.00 0.00 0.00 78 1014.1
20260831120752 85 347 0.0 0.0 0.00 0.00 0.00 77 1014.0
20260831120240 85 318 0.0 1.0 0.00 0.00 0.00 77 1014.0
20260831115735 85 303 0.0 0.0 0.00 0.00 0.00 77 1013.9
20260831115223 85 304 0.0 0.0 0.00 0.00 0.00 77 1013.9
20260831114721 85 306 0.0 1.0 0.00 0.00 0.00 77 1013.7
20260831114228 85 304 0.0 0.0 0.00 0.00 0.00 76 1013.6
20260831113734 85 343 0.0 2.0 0.00 0.00 0.00 76 1013.5
20260831113226 85 287 1.0 2.0 0.00 0.00 0.00 75 1013.4
20260831112722 85 285 0.0 2.0 0.00 0.00 0.00 75 1013.5
20260831112210 85 286 0.0 1.0 0.00 0.00 0.00 75 1013.5
20260831111702 85 286 0.0 0.0 0.00 0.00 0.00 75 1013.6
20260831111201 85 286 0.0 1.0 0.00 0.00 0.00 75 1013.6
20260831110048 85 290 0.0 1.0 0.00 0.00 0.00 74 1013.7
20260831105554 85 275 0.0 0.0 0.00 0.00 0.00 74 1013.7
20260831105054 85 269 0.0 1.0 0.00 0.00 0.00 74 1013.7
20260831104534 86 267 0.0 1.0 0.00 0.00 0.00 74 1013.7
20260831104013 86 293 0.0 0.0 0.00 0.00 0.00 74 1013.5
20260831103458 86 284 0.0 1.0 0.00 0.00 0.00 73 1013.5
20260831103004 86 273 0.0 1.0 0.00 0.00 0.00 73 1013.7
20260831102502 86 270 0.0 0.0 0.00 0.00 0.00 73 1013.7
20260831102000 86 298 0.0 1.0 0.00 0.00 0.00 73 1013.7
20260831101441 86 290 0.0 0.0 0.00 0.00 0.00 73 1013.6
20260831100942 86 211 0.0 5.0 0.00 0.00 0.00 73 1013.5
20260831100427 87 193 1.0 5.0 0.00 0.00 0.00 72 1013.6
20260831095911 87 211 1.0 6.0 0.00 0.00 0.00 72 1013.7
20260831095351 87 246 1.0 6.0 0.00 0.00 0.00 73 1013.7
20260831094841 87 211 3.0 6.0 0.00 0.00 0.00 73 1013.7
20260831094335 87 203 3.0 6.0 0.00 0.00 0.00 73 1013.7
20260831093819 87 2 2.0 8.0 0.00 0.00 0.00 73 1013.7
20260831093317 87 224 3.0 8.0 0.00 0.00 0.00 73 1013.6
20260831092801 87 226 3.0 8.0 0.00 0.00 0.00 73 1013.7
20260831092306 87 174 3.0 8.0 0.00 0.00 0.00 73 1013.6
20260831091745 87 2 3.0 8.0 0.00 0.00 0.00 73 1013.5
20260831090614 87 180 3.0 6.0 0.00 0.00 0.00 73 1013.5
20260831090115 87 207 3.0 6.0 0.00 0.00 0.00 73 1013.6
20260831085555 87 188 3.0 7.0 0.00 0.00 0.00 72 1013.7
20260831085039 87 184 3.0 7.0 0.00 0.00 0.00 72 1013.6
20260831084540 87 213 3.0 7.0 0.00 0.00 0.00 72 1013.6
20260831084047 87 202 3.0 7.0 0.00 0.00 0.00 72 1013.7
20260831083529 87 2 3.0 8.0 0.00 0.00 0.00 73 1013.7
20260831083027 87 220 3.0 8.0 0.00 0.00 0.00 73 1013.8
20260831082516 87 2 4.0 8.0 0.00 0.00 0.00 73 1013.8
20260831081958 87 2 3.0 8.0 0.00 0.00 0.00 72 1013.9
20260831081450 87 2 4.0 6.0 0.00 0.00 0.00 73 1014.0
20260831080320 87 2 4.0 8.0 0.00 0.00 0.00 72 1014.0
20260831075820 87 220 4.0 8.0 0.00 0.00 0.00 73 1013.9
20260831075307 87 2 4.0 8.0 0.00 0.00 0.00 73 1014.0
20260831074746 87 211 5.0 8.0 0.00 0.00 0.00 74 1013.9
20260831074226 87 2 4.0 8.0 0.00 0.00 0.00 74 1014.0
20260831073047 87 2 5.0 9.0 0.00 0.00 0.00 73 1013.9
20260831072530 88 211 5.0 10.0 0.00 0.00 0.00 73 1014.0
20260831072015 88 194 5.0 10.0 0.00 0.00 0.00 73 1014.0
20260831070856 88 196 6.0 10.0 0.00 0.00 0.00 73 1014.1
20260831070350 88 215 6.0 10.0 0.00 0.00 0.00 73 1014.2
20260831065842 88 196 6.0 10.0 0.00 0.00 0.00 73 1014.2
20260831065321 88 192 6.0 10.0 0.00 0.00 0.00 72 1014.2
20260831064804 88 202 6.0 10.0 0.00 0.00 0.00 73 1014.1
20260831064259 88 2 7.0 10.0 0.00 0.00 0.00 72 1014.3
20260831063802 88 2 7.0 10.0 0.00 0.00 0.00 72 1014.3
20260831063248 88 188 6.0 10.0 0.00 0.00 0.00 73 1014.3
20260831062725 88 2 7.0 10.0 0.00 0.00 0.00 72 1014.4
20260831062225 88 2 7.0 12.0 0.00 0.00 0.00 73 1014.3
20260831061715 88 2 8.0 12.0 0.00 0.00 0.00 72 1014.3
20260831061221 88 181 8.0 13.0 0.00 0.00 0.00 73 1014.4
20260831060702 88 198 8.0 13.0 0.00 0.00 0.00 73 1014.4
20260831060207 88 200 7.0 13.0 0.00 0.00 0.00 73 1014.4
20260831055703 88 202 7.0 13.0 0.00 0.00 0.00 73 1014.4
20260831055157 88 2 7.0 12.0 0.00 0.00 0.00 73 1014.5
20260831054643 88 159 7.0 12.0 0.00 0.00 0.00 72 1014.4
20260831054142 88 203 7.0 10.0 0.00 0.00 0.00 72 1014.5
20260831053638 88 188 7.0 11.0 0.00 0.00 0.00 72 1014.4
20260831053124 88 179 7.0 11.0 0.00 0.00 0.00 72 1014.4
20260831052617 88 2 6.0 11.0 0.00 0.00 0.00 72 1014.4
20260831052119 88 207 6.0 11.0 0.00 0.00 0.00 72 1014.3
20260831050952 88 2 6.0 11.0 0.00 0.00 0.00 72 1014.4
20260831050454 88 204 6.0 10.0 0.00 0.00 0.00 71 1014.4
20260831045955 88 2 6.0 10.0 0.00 0.00 0.00 71 1014.4
20260831045438 88 173 7.0 10.0 0.00 0.00 0.00 72 1014.3
20260831044313 88 133 7.0 11.0 0.00 0.00 0.00 71 1014.3
20260831043819 88 2 6.0 11.0 0.00 0.00 0.00 71 1014.3
20260831043322 88 2 6.0 11.0 0.00 0.00 0.00 72 1014.3
20260831042147 88 183 6.0 10.0 0.00 0.00 0.00 73 1014.2
20260831041653 88 2 7.0 10.0 0.00 0.00 0.00 72 1014.2
20260831040413 88 183 6.0 10.0 0.00 0.00 0.00 72 1014.2
20260831035917 88 2 6.0 10.0 0.00 0.00 0.00 72 1014.2
20260831035355 88 185 6.0 10.0 0.00 0.00 0.00 72 1014.2
20260831034215 88 189 7.0 11.0 0.00 0.00 0.00 72 1014.1
20260831033704 88 184 6.0 11.0 0.00 0.00 0.00 72 1014.1
20260831033201 88 206 7.0 11.0 0.00 0.00 0.00 72 1014.1
20260831032649 88 182 7.0 11.0 0.00 0.00 0.00 72 1014.0
20260831031530 88 197 6.0 10.0 0.00 0.00 0.00 72 1014.0
20260831031013 88 194 7.0 10.0 0.00 0.00 0.00 71 1013.9
20260831030511 88 180 6.0 10.0 0.00 0.00 0.00 72 1013.9
20260831030004 88 196 6.0 9.0 0.00 0.00 0.00 72 1013.9
20260831025455 88 2 6.0 9.0 0.00 0.00 0.00 71 1013.9
20260831024324 88 169 5.0 9.0 0.00 0.00 0.00 71 1013.7
20260831023133 88 184 6.0 9.0 0.00 0.00 0.00 71 1013.5
20260831022626 88 187 6.0 9.0 0.00 0.00 0.00 71 1013.5
20260831022115 88 190 5.0 8.0 0.00 0.00 0.00 71 1013.5
20260831021606 88 196 5.0 11.0 0.00 0.00 0.00 71 1013.3
20260831021102 88 199 6.0 11.0 0.00 0.00 0.00 71 1013.2
20260831020556 88 175 6.0 11.0 0.00 0.00 0.00 71 1013.2
20260831015543 88 191 5.0 8.0 0.00 0.00 0.00 71 1013.1
20260831015030 88 2 5.0 9.0 0.00 0.00 0.00 71 1013.1
20260831014509 88 175 5.0 9.0 0.00 0.00 0.00 71 1013.0
20260831013959 88 194 5.0 10.0 0.00 0.00 0.00 71 1013.0
20260831013439 88 198 5.0 10.0 0.00 0.00 0.00 71 1013.0
20260831012934 88 197 6.0 10.0 0.00 0.00 0.00 70 1013.1
20260831012425 88 188 5.0 10.0 0.00 0.00 0.00 70 1013.1
20260831011317 89 182 4.0 7.0 0.00 0.00 0.00 70 1013.0
20260831010807 88 209 4.0 8.0 0.00 0.00 0.00 70 1012.9
20260831010305 89 190 5.0 8.0 0.00 0.00 0.00 69 1012.8
20260831005754 89 184 5.0 10.0 0.00 0.00 0.00 69 1013.0
20260831005258 89 186 6.0 10.0 0.00 0.00 0.00 69 1012.8
20260831004747 89 188 6.0 11.0 0.00 0.00 0.00 69 1012.9
20260831004239 89 182 7.0 11.0 0.00 0.00 0.00 69 1012.8
20260831003730 89 174 7.0 11.0 0.00 0.00 0.00 69 1012.7
20260831003209 89 190 6.0 11.0 0.00 0.00 0.00 69 1012.8
20260831002702 90 188 5.0 10.0 0.00 0.00 0.00 68 1012.9
20260831002206 90 167 6.0 10.0 0.00 0.00 0.00 68 1013.1
20260831001710 90 196 6.0 10.0 0.00 0.00 0.00 67 1013.0
20260831001212 90 180 5.0 10.0 0.00 0.00 0.00 66 1013.0
20260831000652 90 138 5.0 10.0 0.00 0.00 0.00 67 1013.0
20260831000157 90 159 6.0 10.0 0.00 0.00 0.00 67 1013.0
20260830235648 91 180 5.0 10.0 0.00 0.00 0.00 66 1013.1
20260830235147 91 200 4.0 8.0 0.00 0.00 0.00 66 1013.0
20260830234642 91 159 5.0 10.0 0.00 0.00 0.00 66 1012.9
20260830234129 91 166 6.0 10.0 0.00 0.00 0.00 67 1012.9
20260830233621 91 173 7.0 10.0 0.00 0.00 0.00 66 1013.0
20260830233106 91 161 6.0 10.0 0.00 0.00 0.00 66 1013.1
20260830231932 92 204 5.0 10.0 0.00 0.00 0.00 66 1013.1
20260830231423 92 187 4.0 10.0 0.00 0.00 0.00 65 1013.0
20260830230917 92 172 4.0 10.0 0.00 0.00 0.00 66 1013.1
20260830225726 92 193 5.0 10.0 0.00 0.00 0.00 64 1013.1
20260830224602 92 161 4.0 9.0 0.00 0.00 0.00 65 1013.3
20260830224108 92 170 5.0 11.0 0.00 0.00 0.00 67 1013.4
20260830223555 91 167 7.0 11.0 0.00 0.00 0.00 66 1013.3
20260830223034 92 181 7.0 11.0 0.00 0.00 0.00 65 1013.2
20260830222518 92 172 6.0 11.0 0.00 0.00 0.00 66 1013.1
20260830222004 92 169 5.0 10.0 0.00 0.00 0.00 66 1013.2
20260830221459 92 146 5.0 10.0 0.00 0.00 0.00 66 1013.1
20260830220948 92 184 5.0 10.0 0.00 0.00 0.00 65 1013.1
20260830220448 93 109 5.0 9.0 0.00 0.00 0.00 65 1013.2
20260830215955 93 191 5.0 9.0 0.00 0.00 0.00 66 1013.2